TimeCST,TemperatureF,Dew PointF,Humidity,Sea Level PressureIn,VisibilityMPH,Wind Direction,Wind SpeedMPH,Gust SpeedMPH,PrecipitationIn,Events,Conditions,WindDirDegrees,DateUTC
12:53 AM,45.0,33.1,63,30.33,10.0,SE,4.6,-,N/A,,Scattered Clouds,140,2012-11-16 06:53:00
1:53 AM,43.0,33.1,68,30.34,10.0,Calm,Calm,-,N/A,,Scattered Clouds,0,2012-11-16 07:53:00
2:53 AM,44.1,33.1,65,30.34,10.0,Calm,Calm,-,N/A,,Scattered Clouds,0,2012-11-16 08:53:00
3:53 AM,44.1,34.0,68,30.34,10.0,Calm,Calm,-,N/A,,Scattered Clouds,0,2012-11-16 09:53:00
4:53 AM,42.1,34.0,73,30.34,10.0,North,3.5,-,N/A,,Partly Cloudy,350,2012-11-16 10:53:00
5:53 AM,41.0,34.0,76,30.36,10.0,Calm,Calm,-,N/A,,Partly Cloudy,0,2012-11-16 11:53:00
6:53 AM,41.0,36.0,82,30.37,10.0,North,4.6,-,N/A,,Partly Cloudy,360,2012-11-16 12:53:00
7:53 AM,43.0,37.9,82,30.40,9.0,Calm,Calm,-,N/A,,Scattered Clouds,0,2012-11-16 13:53:00
8:53 AM,50.0,36.0,59,30.42,10.0,ENE,3.5,-,N/A,,Scattered Clouds,60,2012-11-16 14:53:00
9:53 AM,55.0,33.1,43,30.41,10.0,East,5.8,-,N/A,,Partly Cloudy,80,2012-11-16 15:53:00
10:53 AM,57.9,30.9,36,30.42,10.0,Variable,3.5,-,N/A,,Partly Cloudy,0,2012-11-16 16:53:00
11:53 AM,61.0,30.0,31,30.40,10.0,Calm,Calm,-,N/A,,Partly Cloudy,0,2012-11-16 17:53:00
12:53 PM,62.1,28.9,29,30.36,10.0,ENE,4.6,-,N/A,,Partly Cloudy,60,2012-11-16 18:53:00
1:53 PM,64.9,28.0,25,30.33,10.0,ENE,3.5,-,N/A,,Partly Cloudy,70,2012-11-16 19:53:00
2:53 PM,64.0,28.0,26,30.32,10.0,East,5.8,-,N/A,,Partly Cloudy,80,2012-11-16 20:53:00
3:53 PM,64.0,27.0,25,30.32,10.0,NE,9.2,-,N/A,,Clear,50,2012-11-16 21:53:00
4:53 PM,62.1,28.0,28,30.32,10.0,ENE,4.6,-,N/A,,Partly Cloudy,70,2012-11-16 22:53:00
5:53 PM,57.9,28.9,33,30.32,10.0,Calm,Calm,-,N/A,,Scattered Clouds,0,2012-11-16 23:53:00
6:53 PM,55.0,30.0,38,30.33,10.0,ESE,3.5,-,N/A,,Scattered Clouds,120,2012-11-17 00:53:00
7:53 PM,55.0,30.0,38,30.34,10.0,Calm,Calm,-,N/A,,Partly Cloudy,0,2012-11-17 01:53:00
8:53 PM,51.1,30.9,46,30.35,10.0,Calm,Calm,-,N/A,,Partly Cloudy,0,2012-11-17 02:53:00
9:53 PM,50.0,32.0,50,30.36,10.0,ESE,3.5,-,N/A,,Clear,120,2012-11-17 03:53:00
10:53 PM,50.0,32.0,50,30.36,10.0,SE,3.5,-,N/A,,Clear,140,2012-11-17 04:53:00
11:53 PM,46.9,30.9,54,30.35,10.0,ESE,3.5,-,N/A,,Clear,120,2012-11-17 05:53:00